Location: Huppendorf
(49.9333°N, 11.1500°E)
Time: 10:33:52
(UTC+00:00)

STARLINK-1039 - Pass Details

Date: 27 February 2020
Orbit: 549 x 551 km, 53.0° (Epoch: 30 March)

Event Time Altitude Azimuth Distance (km) Brightness Sun altitude
Rises 18:17:29 0° 232° (SW) 2,710 7.9 -14.3°
Reaches altitude 10° 18:19:43 10° 229° (SW) 1,820 6.9 -14.7°
Maximum altitude 18:23:47 58° 150° (SSE) 644 3.7 -15.3°
Enters shadow 18:25:42 29° 82° (E) 1,028 4.4 -15.6°
